• In Schweiz
  • Länderverzeichnis
  • Für 7 Tage
  • Wassertemperatur
  • Satellitenkarten
  • Wetterkarte
  • Widgets
  • user-avatar
    Anmelden

    Stündliche Wetter Julara

    Heute, 20 Oktober, Samstag

    Zeit Temperatur Niederschläge Wind Luftdruck Luftfeuchtigkeit
    00:00 +24°C° 0 mm 8 m/S 719 mmHg 32%
    01:00 +23°C° 0 mm 8 m/S 719 mmHg 33%
    02:00 +22°C° 0 mm 8 m/S 719 mmHg 35%
    03:00 +21°C° 0 mm 7 m/S 719 mmHg 37%
    04:00 +20°C° 0 mm 8 m/S 719 mmHg 40%
    05:00 +18°C° 0 mm 8 m/S 720 mmHg 44%
    06:00 +17°C° 0 mm 8 m/S 720 mmHg 47%
    07:00 +20°C° 0 mm 8 m/S 720 mmHg 43%
    08:00 +21°C° 0 mm 8 m/S 721 mmHg 39%
    09:00 +23°C° 0 mm 8 m/S 721 mmHg 35%
    10:00 +24°C° 0 mm 7 m/S 721 mmHg 31%
    11:00 +27°C° 0 mm 7 m/S 721 mmHg 26%
    12:00 +29°C° 0 mm 6 m/S 720 mmHg 21%
    13:00 +30°C° 0 mm 6 m/S 720 mmHg 19%
    14:00 +32°C° 0 mm 5 m/S 719 mmHg 17%
    15:00 +33°C° 0 mm 5 m/S 719 mmHg 15%
    16:00 +32°C° 0 mm 5 m/S 719 mmHg 15%
    17:00 +32°C° 0 mm 5 m/S 719 mmHg 15%
    18:00 +30°C° 0 mm 5 m/S 719 mmHg 15%
    19:00 +29°C° 0 mm 5 m/S 719 mmHg 16%
    20:00 +28°C° 0 mm 5 m/S 720 mmHg 17%
    21:00 +26°C° 0 mm 6 m/S 720 mmHg 17%
    22:00 +24°C° 0 mm 6 m/S 720 mmHg 18%
    23:00 +24°C° 0 mm 6 m/S 720 mmHg 19%

    Morgen, 21 Oktober, Sonntag

    Zeit Temperatur Niederschläge Wind Luftdruck Luftfeuchtigkeit
    00:00 +23°C° 0 mm 7 m/S 719 mmHg 20%
    01:00 +22°C° 0 mm 6 m/S 719 mmHg 21%
    02:00 +21°C° 0 mm 6 m/S 719 mmHg 22%
    03:00 +20°C° 0 mm 5 m/S 719 mmHg 23%
    04:00 +20°C° 0 mm 5 m/S 719 mmHg 24%
    05:00 +20°C° 0 mm 5 m/S 719 mmHg 25%
    06:00 +19°C° 0 mm 4 m/S 719 mmHg 26%
    07:00 +21°C° 0 mm 5 m/S 719 mmHg 23%
    08:00 +24°C° 0 mm 6 m/S 720 mmHg 20%
    09:00 +27°C° 0 mm 7 m/S 720 mmHg 17%
    10:00 +29°C° 0 mm 6 m/S 719 mmHg 16%
    11:00 +32°C° 0 mm 5 m/S 719 mmHg 15%
    12:00 +34°C° 0 mm 4 m/S 718 mmHg 13%
    13:00 +35°C° 0 mm 4 m/S 718 mmHg 12%
    14:00 +36°C° 0 mm 4 m/S 717 mmHg 11%
    15:00 +37°C° 0 mm 4 m/S 716 mmHg 10%
    16:00 +37°C° 0 mm 4 m/S 716 mmHg 10%
    17:00 +36°C° 0 mm 3 m/S 716 mmHg 10%
    18:00 +36°C° 0 mm 3 m/S 715 mmHg 11%
    19:00 +34°C° 0 mm 3 m/S 716 mmHg 11%
    20:00 +33°C° 0 mm 3 m/S 716 mmHg 12%
    21:00 +30°C° 0 mm 2 m/S 716 mmHg 13%
    22:00 +29°C° 0 mm 3 m/S 716 mmHg 13%
    23:00 +28°C° 0 mm 3 m/S 716 mmHg 14%

    übermorgen, 22 Oktober, Montag

    Zeit Temperatur Niederschläge Wind Luftdruck Luftfeuchtigkeit
    00:00 +28°C° 0 mm 3 m/S 716 mmHg 15%
    01:00 +27°C° 0 mm 3 m/S 715 mmHg 16%
    02:00 +26°C° 0 mm 4 m/S 715 mmHg 17%
    03:00 +25°C° 0 mm 4 m/S 714 mmHg 18%
    04:00 +25°C° 0 mm 3 m/S 714 mmHg 19%
    05:00 +24°C° 0 mm 3 m/S 715 mmHg 20%
    06:00 +24°C° 0 mm 2 m/S 715 mmHg 21%
    07:00 +27°C° 0 mm 2 m/S 715 mmHg 18%
    08:00 +30°C° 0 mm 2 m/S 716 mmHg 15%
    09:00 +33°C° 0 mm 1 m/S 716 mmHg 12%
    10:00 +36°C° 0 mm 3 m/S 716 mmHg 11%
    11:00 +38°C° 0 mm 4 m/S 716 mmHg 10%
    12:00 +41°C° 0 mm 5 m/S 716 mmHg 8%
    13:00 +41°C° 0 mm 6 m/S 715 mmHg 8%
    14:00 +42°C° 0 mm 6 m/S 714 mmHg 8%
    15:00 +43°C° 0 mm 7 m/S 713 mmHg 8%
    16:00 +41°C° 0 mm 6 m/S 714 mmHg 9%
    17:00 +40°C° 0 mm 5 m/S 714 mmHg 10%
    18:00 +38°C° 0 mm 4 m/S 714 mmHg 10%
    19:00 +37°C° 0 mm 5 m/S 715 mmHg 12%
    20:00 +35°C° 0 mm 7 m/S 715 mmHg 14%
    21:00 +33°C° 0 mm 8 m/S 716 mmHg 16%
    22:00 +32°C° 0 mm 8 m/S 716 mmHg 19%
    23:00 +29°C° 0 mm 8 m/S 716 mmHg 22%

    23 Oktober, Dienstag

    Zeit Temperatur Niederschläge Wind Luftdruck Luftfeuchtigkeit
    00:00 +28°C° 0 mm 8 m/S 716 mmHg 25%
    01:00 +26°C° 0 mm 8 m/S 716 mmHg 30%
    02:00 +24°C° 0 mm 8 m/S 716 mmHg 35%
    03:00 +23°C° 0 mm 8 m/S 717 mmHg 41%
    04:00 +22°C° 0 mm 8 m/S 717 mmHg 43%
    05:00 +21°C° 0 mm 9 m/S 718 mmHg 45%
    06:00 +19°C° 0 mm 9 m/S 719 mmHg 48%
    07:00 +21°C° 0 mm 9 m/S 719 mmHg 45%
    08:00 +23°C° 0 mm 9 m/S 720 mmHg 42%
    09:00 +24°C° 0 mm 9 m/S 720 mmHg 39%
    10:00 +27°C° 0 mm 9 m/S 720 mmHg 34%
    11:00 +29°C° 0 mm 9 m/S 719 mmHg 29%
    12:00 +32°C° 0 mm 8 m/S 719 mmHg 25%
    13:00 +32°C° 0 mm 8 m/S 718 mmHg 23%
    14:00 +33°C° 0 mm 8 m/S 717 mmHg 21%
    15:00 +34°C° 0 mm 7 m/S 717 mmHg 19%
    16:00 +33°C° 0 mm 7 m/S 717 mmHg 20%
    17:00 +33°C° 0 mm 7 m/S 717 mmHg 21%
    18:00 +32°C° 0 mm 7 m/S 717 mmHg 21%
    19:00 +30°C° 0 mm 7 m/S 718 mmHg 23%
    20:00 +29°C° 0 mm 7 m/S 718 mmHg 24%
    21:00 +27°C° 0 mm 7 m/S 719 mmHg 25%
    22:00 +26°C° 0 mm 7 m/S 719 mmHg 26%
    23:00 +26°C° 0 mm 7 m/S 719 mmHg 27%

    24 Oktober, Mittwoch

    Zeit Temperatur Niederschläge Wind Luftdruck Luftfeuchtigkeit
    00:00 +24°C° 0 mm 8 m/S 718 mmHg 27%
    01:00 +23°C° 0 mm 7 m/S 718 mmHg 28%
    02:00 +23°C° 0 mm 7 m/S 718 mmHg 28%
    03:00 +22°C° 0 mm 7 m/S 717 mmHg 28%
    04:00 +22°C° 0 mm 7 m/S 718 mmHg 28%
    05:00 +22°C° 0 mm 7 m/S 718 mmHg 27%
    06:00 +21°C° 0 mm 7 m/S 718 mmHg 27%
    07:00 +23°C° 0 mm 8 m/S 718 mmHg 24%
    08:00 +26°C° 0 mm 9 m/S 719 mmHg 22%
    09:00 +28°C° 0 mm 9 m/S 719 mmHg 19%
    10:00 +32°C° 0.1 mm 9 m/S 719 mmHg 18%
    11:00 +34°C° 0.1 mm 9 m/S 718 mmHg 17%
    12:00 +37°C° 0.1 mm 9 m/S 718 mmHg 16%
    13:00 +38°C° 0 mm 8 m/S 717 mmHg 15%
    14:00 +39°C° 0 mm 8 m/S 716 mmHg 15%
    15:00 +40°C° 0 mm 8 m/S 715 mmHg 15%
    16:00 +39°C° 0 mm 8 m/S 715 mmHg 15%
    17:00 +38°C° 0 mm 8 m/S 715 mmHg 15%
    18:00 +37°C° 0 mm 8 m/S 714 mmHg 15%
    19:00 +35°C° 0 mm 8 m/S 715 mmHg 16%
    20:00 +33°C° 0 mm 9 m/S 715 mmHg 17%
    21:00 +31°C° 0 mm 9 m/S 715 mmHg 17%
    22:00 +31°C° 0 mm 8 m/S 715 mmHg 17%
    23:00 +30°C° 0 mm 7 m/S 715 mmHg 16%

    25 Oktober, Donnerstag

    Zeit Temperatur Niederschläge Wind Luftdruck Luftfeuchtigkeit
    00:00 +30°C° 0 mm 6 m/S 715 mmHg 16%
    01:00 +29°C° 0.3 mm 6 m/S 715 mmHg 19%
    02:00 +28°C° 0.3 mm 5 m/S 715 mmHg 22%
    03:00 +28°C° 0.3 mm 4 m/S 714 mmHg 25%
    04:00 +27°C° 0.4 mm 5 m/S 714 mmHg 25%
    05:00 +27°C° 0.4 mm 7 m/S 714 mmHg 25%
    06:00 +27°C° 0.4 mm 8 m/S 714 mmHg 25%
    07:00 +28°C° 0.3 mm 8 m/S 715 mmHg 27%
    08:00 +29°C° 0.3 mm 8 m/S 715 mmHg 29%
    09:00 +32°C° 0.3 mm 8 m/S 715 mmHg 32%
    10:00 +33°C° 0.2 mm 9 m/S 714 mmHg 30%
    11:00 +36°C° 0.2 mm 10 m/S 714 mmHg 29%
    12:00 +37°C° 0.2 mm 11 m/S 713 mmHg 28%
    13:00 +38°C° 0 mm 11 m/S 712 mmHg 24%
    14:00 +39°C° 0 mm 10 m/S 712 mmHg 20%
    15:00 +40°C° 0 mm 10 m/S 711 mmHg 16%
    16:00 +39°C° 0 mm 9 m/S 711 mmHg 16%
    17:00 +39°C° 0 mm 9 m/S 711 mmHg 15%
    18:00 +39°C° 0 mm 8 m/S 711 mmHg 15%
    19:00 +38°C° 0 mm 8 m/S 712 mmHg 15%
    20:00 +37°C° 0 mm 8 m/S 712 mmHg 16%
    21:00 +37°C° 0 mm 8 m/S 713 mmHg 16%
    22:00 +34°C° 0 mm 7 m/S 713 mmHg 16%
    23:00 +30°C° 0 mm 7 m/S 713 mmHg 15%
    Mehr zeigen